User: anonymous   Login
Location: Unspecified
(0.0000°N, 0.0000°E)
Time: 11:01:28
(UTC+00:00)
Language:

Tiungsat 1 - Orbit

View from above orbital plane
View from above orbital plane
View from above satellite
View from above satellite

Ground track
Ground track

The orbit data is extracted from the following two-line orbital elements,

1 26548U 00057D   21170.25350332  .00000074  00000-0  23947-4 0  9991
2 26548  64.5511 109.3807 0013234 210.5470 149.4870 14.89626694123711
Epoch (UTC): 19 June 2021 06:05:02
Eccentricity: 0.0013234
inclination: 64.5511°
perigee height: 590 km
apogee height: 608 km
right ascension of ascending node: 109.3807°
argument of perigee: 210.5470°
revolutions per day: 14.89626694
mean anomaly at epoch: 149.4870°
orbit number at epoch: 12371

The dashed part of the orbit path shows where the satellite is in the earth's shadow,  

DLR